Погода в Куладе

Россия / Республика Алтай     50°41′16″N   85°47′11″E
темп.,
°C
ветер,
м/с
пор.,
м/с
влажн.,
%
обл.,
%
осадки,
мм/ч
давл.,
гПа
погр.,
м
21 января, пт
пт2101:00−22ююз119985 0.1 103911
04:00−24ююз119977 0.0 103910
07:00−25ююз119978 0.1 10399
10:00−24ююз119978 0.0 103811
13:00−16св119573 0.1 1031148
16:00−14св119463 0.0 1028112
19:00−22ююз119964 0.0 103411
22:00−24ююз119775 0.0 103510
22 января, сб
сб2201:00−24ююз119777 0.0 103610
04:00−25ююз119774 0.0 103710
07:00−25ююз119776 0.0 103811
10:00−24ю119777 0.0 103916
13:00−16св119241 0.0 1033122
16:00−13св119221 0.0 103191
19:00−21ююз219861 0.0 103711
22:00−22ююз119770 0.0 103911
23 января, вс
вс2301:00−23ююз119792 0.0 104010
04:00−23ююз119675 0.0 104014
07:00−24ю119677 0.0 104113
10:00−23ююз119577 0.0 104224
13:00−15св118821 0.0 1035124
16:00−13св11885 0.0 103399
19:00−21ююз219853 0.0 103911
22:00−23ююз119652 0.0 104111
24 января, пн
пн2401:00−24ююз119526 0.0 104110
04:00−25ююз119427 0.0 104110
07:00−25ююз119527 0.0 104212
10:00−24ююз119527 0.0 104117
13:00−16ссв118718 0.0 1034125
16:00−14ссв018818 0.0 1032117
19:00−23ююз219925 0.0 103811
22:00−23юз1198100 0.0 103910
25 января, вт
вт2501:00−20юз1198100 0.0 103612
04:00−22юз1198100 0.0 103710
07:00−19ююз1198100 0.2 103532
10:00−19ююз009798 0.1 103538
13:00−15ссв1190100 0.2 1032300
16:00−14ссв1190100 0.0 1031270
19:00−18ю1199100 0.1 103310
22:00−18ююз1198100 0.1 103411